轨道通信卫星FM23星 (ORBCOMM FM23)

导读 | 星芒AI

ORBCOMM FM23 是一颗由 ORBCOMM 公司运营的低轨(LEO)卫星,属于其第二代机队(FG2)的一部分,主要用于提供全球范围的物联网(IoT)和机器对机器(M2M)通信服务。该卫星运行在近地轨道,支持数据传输、远程监控和追踪应用,广泛应用于物流、运输、能源等行业。FM23 卫星采用先进通信技术,提高了数据传输效率和系统可靠性,是 ORBCOMM 扩展其全球物联网连接能力的重要组成部分。

基本信息
目录编号:
25477
目录名称:
ORBCOMM FM 23
国际标识:
1998-053C
轨道中心:
EARTH
卫星名称:
轨道通信卫星FM23星
卫星全名:
轨道通信卫星FM23星 (ORBCOMM FM23)
卫星状态:
在轨 (已飞行9998 天)
发射日期:
1998-09-23 UTC
国别 :
(ORB)
星等 :
--
轨道信息
数据来源 国际轨道数据 AOE轨道数据
星历时间 2026-02-06T07:11:49+0800
14小时前
查看轨道信息
2026-02-04T17:00:00+0800
2天前
查看轨道信息
半长轴 7142.596km 7142.623km
偏心率 0.0002132 0.0002109
轨道倾角 45.007° 45.005°
近地点辐角 326.580° 307.930°
升交点赤经 243.658° 251.210°
平近点角 33.492° 83.937°
近地点 762.936km 762.979km
远地点 765.982km 765.993km
周期 100.125分钟 100.126分钟
每日圈数 14.381981 14.381899
详细信息
固有亮度:
8
最大亮度:
6.9
平衡模式:
三轴稳定
覆盖范围:
全球
运营商:
轨道通信公司
运营商所在国:
美国
制造商(研发单位):
轨道ATK公司
制造商所在国:
美国
使用方式:
暂无
卫星简介
轨道通信FM(Orbcomm FM)是一系列低地球轨道通信卫星,由美国卫星通信公司 Orbcomm运营。 截至2015年12月,已有63颗此类卫星绕地球运行。该卫星已退役。
2D轨道图
3D轨道图
轨道高度分析图
轨道倾角分析图
轨道综合分析图
查看轨道综合分析图